Data for 11/08/2016

Time Sea-Level Adjusted Pressure Absolute Pressure Temperature Relative Humidity Dew Point   
(mb) (inHg) (mb) (inHg) (C) (F) (%) (C) (F)
00:05 1030 30.42 859 25.37 6 42.8 54 -2.6 27.4
00:10 1030 30.42 859 25.37 5.8 42.5 54 -2.6 27.3
00:15 1030 30.42 859 25.37 6 42.8 52 -3 26.6
00:20 1030 30.42 859 25.37 6.7 44.1 51 -2.8 26.9
00:25 1030 30.42 859 25.37 6.8 44.2 51 -2.7 27.2
00:30 1030 30.42 859 25.37 6.5 43.8 51 -2.7 27.1
00:35 1030 30.42 859 25.37 6.5 43.7 51 -2.9 26.8
00:40 1030 30.42 859 25.37 6.2 43.2 51 -3.1 26.5
00:45 1030 30.42 859 25.37 5.9 42.6 53 -2.9 26.7
00:50 1030 30.42 859 25.37 5.7 42.2 54 -2.9 26.8
00:55 1030 30.42 859 25.37 5.5 41.8 53 -3.4 25.8
01:00 1030 30.42 859 25.37 5.8 42.5 52 -3.4 25.9
01:05 1030 30.42 859 25.37 6.2 43.1 49 -3.7 25.4
01:10 1030 30.42 859 25.37 6.9 44.4 49 -3.2 26.3
01:15 1030 30.42 859 25.37 7.2 44.9 48 -3.1 26.4
01:20 1030 30.42 859 25.37 6.5 43.7 49 -3.3 26
01:25 1030 30.42 859 25.37 6.4 43.6 49 -3.4 25.9
01:30 1030 30.42 859 25.37 6.7 44 48 -3.5 25.7
01:35 1030 30.42 859 25.37 6.8 44.2 48 -3.4 25.8
01:40 1030 30.42 859 25.37 6.5 43.8 50 -3.2 26.2
01:45 1030 30.42 860 25.4 6 42.9 51 -3.3 26
01:50 1030 30.42 860 25.4 5.4 41.7 53 -3.4 25.9
01:55 1030 30.42 859 25.37 5.4 41.8 52 -3.7 25.4
02:00 1030 30.42 859 25.37 6 42.7 50 -3.6 25.5
02:05 1030 30.42 860 25.4 5.9 42.6 51 -3.3 26
02:10 1030 30.42 860 25.4 5.5 41.9 53 -3.2 26.2
02:15 1030 30.42 860 25.4 5.3 41.6 53 -3.6 25.5
02:20 1030 30.42 859 25.37 5.5 41.9 52 -3.5 25.8
02:25 1030 30.42 859 25.37 5.1 41.3 55 -3.1 26.4
02:30 1030 30.42 859 25.37 4.7 40.4 56 -3.3 26
02:35 1030 30.42 859 25.37 4.5 40.2 55 -3.8 25.1
02:40 1030 30.42 859 25.37 4.7 40.5 55 -3.6 25.5
02:45 1030 30.42 859 25.37 4.5 40.1 55 -3.7 25.3
02:50 1030 30.42 859 25.37 4.4 39.8 57 -3.4 25.9
02:55 1030 30.42 859 25.37 4.1 39.5 56 -3.8 25.2
03:00 1030 30.42 859 25.37 4.3 39.8 57 -3.5 25.7
03:05 1030 30.42 859 25.37 4.8 40.6 56 -3.3 26
03:10 1030 30.42 859 25.37 5 40.9 55 -3.3 26.1
03:15 1030 30.42 859 25.37 4.9 40.9 56 -3.2 26.3
03:20 1030 30.42 859 25.37 4.3 39.8 58 -3.1 26.4
03:25 1030 30.42 859 25.37 3.9 39.1 60 -3.2 26.3
03:30 1030 30.42 859 25.37 3.9 39 59 -3.3 26.1
03:35 1030 30.42 859 25.37 4.2 39.5 58 -3.3 26.1
03:40 1030 30.42 859 25.37 4.2 39.5 58 -3.3 26.1
03:45 1030 30.42 859 25.37 4 39.2 60 -3.1 26.4
03:50 1030 30.42 859 25.37 3.6 38.5 61 -3.2 26.3
03:55 1030 30.42 859 25.37 3.9 39.1 59 -3.3 26
04:00 1030 30.42 859 25.37 4 39.2 59 -3.3 26.1
04:05 1030 30.42 859 25.37 4.6 40.3 55 -3.5 25.6
04:10 1030 30.42 859 25.37 5.1 41.1 55 -3.3 26
04:15 1030 30.42 859 25.37 5.3 41.5 53 -3.6 25.6
04:20 1030 30.42 859 25.37 5.8 42.4 50 -3.7 25.3
04:25 1030 30.42 859 25.37 6 42.8 50 -3.6 25.6
04:30 1030 30.42 859 25.37 6 42.9 50 -3.5 25.7
04:35 1030 30.42 859 25.37 5.8 42.5 51 -3.6 25.5
04:40 1030 30.42 859 25.37 5.8 42.4 51 -3.6 25.4
04:45 1030 30.42 859 25.37 5.9 42.6 50 -3.7 25.4
04:50 1030 30.42 859 25.37 5.6 42 51 -3.9 25
04:55 1030 30.42 859 25.37 5.9 42.6 49 -3.9 25
05:00 1030 30.42 859 25.37 6.2 43.2 48 -4 24.8
05:05 1030 30.42 859 25.37 6.2 43.2 48 -3.8 25.1
05:10 1030 30.42 859 25.37 6 42.8 49 -3.9 25
05:15 1030 30.42 859 25.37 6.2 43.1 47 -4.2 24.4
05:20 1030 30.42 859 25.37 6.3 43.4 47 -4.1 24.6
05:25 1030 30.42 859 25.37 6.1 42.9 48 -4.2 24.4
05:30 1030 30.42 859 25.37 5.7 42.3 48 -4.6 23.8
05:35 1030 30.42 859 25.37 6 42.7 47 -4.4 24.1
05:40 1030 30.42 859 25.37 5.5 41.9 49 -4.2 24.4
05:45 1030 30.42 859 25.37 5.1 41.1 52 -4 24.7
05:50 1030 30.42 859 25.37 5.1 41.2 50 -4.6 23.8
05:55 1030 30.42 859 25.37 5.2 41.4 50 -4.3 24.2
06:00 1030 30.42 859 25.37 5 41 54 -3.5 25.6
06:05 1030 30.42 859 25.37 4.3 39.7 56 -3.6 25.5
06:10 1030 30.42 859 25.37 3.7 38.7 57 -4.1 24.6
06:15 1030 30.42 859 25.37 4 39.1 55 -4.2 24.5
06:20 1030 30.42 859 25.37 4.3 39.8 55 -3.9 25
06:25 1030 30.42 859 25.37 4.4 39.9 54 -4 24.8
06:30 1030 30.42 859 25.37 4.5 40 54 -4 24.7
06:35 1030 30.42 859 25.37 4.5 40.1 53 -4.2 24.4
06:40 1030 30.42 859 25.37 4.5 40.1 52 -4.4 24.1
06:45 1030 30.42 859 25.37 4.4 39.8 55 -3.9 24.9
06:50 1030 30.42 859 25.37 3.8 38.8 56 -4.2 24.4
06:55 1030 30.42 859 25.37 3.9 39 55 -4.3 24.3
07:00 1030 30.42 859 25.37 3.6 38.5 57 -4 24.7
07:05 1030 30.42 859 25.37 3.5 38.2 57 -4.3 24.3
07:10 1030 30.42 859 25.37 3.4 38.1 58 -4 24.8
07:15 1030 30.42 859 25.37 3.3 37.9 59 -4.1 24.7
07:20 1030 30.42 859 25.37 2.9 37.3 61 -3.9 25
07:25 1030 30.42 859 25.37 3.1 37.6 59 -4.3 24.3
07:30 1030 30.42 859 25.37 3.1 37.7 59 -4.1 24.6
07:35 1030 30.42 859 25.37 2.8 37.1 60 -4.2 24.5
07:40 1030 30.42 859 25.37 2.4 36.3 62 -4.1 24.6
07:45 1030 30.42 859 25.37 2.6 36.7 60 -4.3 24.2
07:50 1030 30.42 859 25.37 2.8 37 60 -4.4 24.2
07:55 1030 30.42 859 25.37 3.3 37.9 57 -4.4 24.1
08:00 1030 30.42 859 25.37 3.5 38.3 57 -4.2 24.4
08:05 1030 30.42 859 25.37 3.4 38.1 58 -4.1 24.7
08:10 1030 30.42 859 25.37 3.8 38.9 56 -4.2 24.4
08:15 1030 30.42 859 25.37 3.8 38.8 56 -4.2 24.5
08:20 1030 30.42 859 25.37 3.4 38.1 59 -3.9 25
08:25 1030 30.42 859 25.37 3 37.5 59 -4.1 24.6
08:30 1030 30.42 859 25.37 3 37.4 60 -3.9 24.9
08:35 1030 30.42 859 25.37 2.9 37.2 60 -4.1 24.7
08:40 1030 30.42 859 25.37 3 37.4 60 -4.1 24.7
08:45 1030 30.42 859 25.37 3.2 37.7 59 -4 24.8
08:50 1030 30.42 859 25.37 3.5 38.4 58 -4 24.8
08:55 1030 30.42 859 25.37 3.9 39 56 -4.1 24.6
09:00 1030 30.42 859 25.37 3.8 38.9 56 -4.1 24.6
09:05 1030 30.42 859 25.37 4.2 39.5 54 -4.3 24.3
09:10 1030 30.42 859 25.37 4.7 40.5 52 -4.3 24.2
09:15 1030 30.42 859 25.37 5.2 41.3 51 -4.1 24.7
09:20 1030 30.42 859 25.37 5.3 41.5 52 -3.9 25
09:25 1030 30.42 860 25.4 5.2 41.3 51 -4.1 24.6
09:30 1030 30.42 860 25.4 5.5 41.9 51 -3.9 24.9
09:35 1030 30.42 860 25.4 5.3 41.6 51 -4 24.8
09:40 1030 30.42 860 25.4 5.4 41.7 51 -3.8 25.1
09:45 1030 30.42 860 25.4 5.6 42.1 51 -3.7 25.3
09:50 1030 30.42 860 25.4 6 42.7 50 -3.6 25.5
09:55 1030 30.42 860 25.4 6.3 43.3 50 -3.3 26
10:00 1030 30.42 860 25.4 6.7 44 49 -3.3 26
10:05 1030 30.42 860 25.4 6.9 44.4 49 -3.1 26.4
10:10 1030 30.42 859 25.37 7.1 44.8 48 -3.1 26.4
10:15 1030 30.42 859 25.37 7.4 45.3 48 -3 26.6
10:20 1030 30.42 859 25.37 7.5 45.5 47 -3.1 26.4
10:25 1030 30.42 859 25.37 7.9 46.3 45 -3.1 26.3
10:30 1030 30.42 859 25.37 8.2 46.7 45 -3 26.6
10:35 1030 30.42 859 25.37 8 46.4 45 -3.3 26.1
10:40 1030 30.42 859 25.37 8.3 47 44 -3.3 26
10:45 1030 30.42 859 25.37 8.9 48 42 -3.2 26.3
10:50 1030 30.42 859 25.37 9.3 48.8 41 -3.3 26.1
10:55 1030 30.42 859 25.37 9.9 49.8 38 -3.7 25.3
11:00 1030 30.42 859 25.37 10.2 50.3 38 -3.4 25.9
11:05 1030 30.42 859 25.37 10.1 50.1 38 -3.5 25.7
11:10 1030 30.42 859 25.37 10.4 50.7 37 -3.7 25.3
11:15 1030 30.42 859 25.37 10.9 51.6 36 -3.6 25.4
11:20 1030 30.42 859 25.37 10.6 51 37 -3.6 25.5
11:25 1030 30.42 859 25.37 11.1 51.9 35 -3.8 25.1
11:30 1030 30.42 859 25.37 11.3 52.4 34 -3.8 25.2
11:35 1030 30.42 859 25.37 11.1 51.9 36 -3.3 26
11:40 1030 30.42 859 25.37 11.5 52.8 34 -3.8 25.2
11:45 1030 30.42 859 25.37 11.9 53.4 36 -2.6 27.3
11:50 1030 30.42 859 25.37 12 53.5 34 -3.3 26
11:55 1030 30.42 859 25.37 12.4 54.3 33 -3.6 25.6
12:00 1030 30.42 859 25.37 13.2 55.7 31 -3.5 25.7
12:05 1030 30.42 859 25.37 13.5 56.4 31 -3.1 26.5
12:10 1030 30.42 859 25.37 13 55.4 32 -3.2 26.2
12:15 1030 30.42 859 25.37 13 55.4 32 -3.1 26.5
12:20 1030 30.42 859 25.37 12.2 53.9 34 -3.1 26.4
12:25 1030 30.42 859 25.37 12 53.7 34 -3.2 26.3
12:30 1030 30.42 859 25.37 12.4 54.2 35 -2.6 27.3
12:35 1029 30.39 859 25.37 13 55.4 33 -2.8 27
12:40 1029 30.39 859 25.37 13.3 55.9 33 -2.7 27.2
12:45 1029 30.39 859 25.37 13.6 56.4 33 -2.4 27.6
12:50 1029 30.39 859 25.37 13.8 56.9 32 -2.3 27.8
12:55 1029 30.39 858 25.34 13.5 56.2 37 -1 30.2
13:00 1029 30.39 858 25.34 12 53.5 38 -1.8 28.7
13:05 1029 30.39 858 25.34 12.7 54.8 35 -2.2 28.1
13:10 1029 30.39 858 25.34 13.5 56.3 36 -1.2 29.8
13:15 1029 30.39 858 25.34 12.9 55.3 38 -1.1 30
13:20 1029 30.39 858 25.34 12.6 54.8 38 -1.2 29.8
13:25 1029 30.39 858 25.34 12.4 54.3 39 -1.2 29.8
13:30 1029 30.39 858 25.34 12.8 55 34 -2.5 27.5
13:35 1029 30.39 858 25.34 12.8 55 37 -1.5 29.3
13:40 1029 30.39 858 25.34 12.4 54.2 35 -2.5 27.4
13:45 1029 30.39 858 25.34 13.5 56.3 33 -2.4 27.7
13:50 1029 30.39 858 25.34 14 57.3 33 -2.1 28.3
13:55 1029 30.39 858 25.34 14.4 57.9 32 -2.1 28.2
14:00 1029 30.39 858 25.34 13.5 56.4 31 -3 26.6
14:05 1029 30.39 858 25.34 14.2 57.6 32 -2.2 28
14:10 1029 30.39 858 25.34 13.6 56.5 35 -1.5 29.3
14:15 1029 30.39 858 25.34 12.9 55.2 33 -2.9 26.8
14:20 1029 30.39 858 25.34 12.6 54.6 35 -2.6 27.3
14:25 1029 30.39 858 25.34 12.3 54.1 36 -2.5 27.5
14:30 1029 30.39 858 25.34 13.1 55.7 32 -3.3 26.1
14:35 1029 30.39 858 25.34 14 57.2 32 -2.4 27.6
14:40 1029 30.39 858 25.34 13.9 57 32 -2.6 27.3
14:45 1029 30.39 858 25.34 15 58.9 30 -2.4 27.7
14:50 1028 30.36 858 25.34 15.4 59.7 29 -2.5 27.5
14:55 1028 30.36 858 25.34 14.7 58.5 33 -1.2 29.8
15:00 1028 30.36 858 25.34 14.4 57.9 29 -3.2 26.3
15:05 1028 30.36 858 25.34 14.7 58.4 30 -2.7 27.2
15:10 1028 30.36 858 25.34 14.5 58 31 -2.6 27.3
15:15 1028 30.36 858 25.34 15.1 59.1 28 -3.1 26.4
15:20 1028 30.36 858 25.34 16 60.7 28 -2.6 27.3
15:25 1028 30.36 858 25.34 15.8 60.4 28 -2.5 27.4
15:30 1028 30.36 857 25.31 15.9 60.6 28 -2.7 27.1
15:35 1028 30.36 857 25.31 16 60.8 27 -2.8 27
15:40 1028 30.36 857 25.31 16.3 61.3 26 -2.9 26.7
15:45 1028 30.36 857 25.31 16.1 60.9 26 -3.2 26.2
15:50 1028 30.36 857 25.31 16.2 61.2 25 -3.7 25.3
15:55 1028 30.36 857 25.31 16.2 61.2 25 -3.6 25.5
16:00 1028 30.36 857 25.31 16.1 61 26 -3.4 25.8
16:05 1028 30.36 857 25.31 16 60.8 25 -3.9 24.9
16:10 1028 30.36 857 25.31 16.1 61 25 -3.7 25.3
16:15 1028 30.36 857 25.31 16.2 61.2 24 -4.1 24.7
16:20 1028 30.36 857 25.31 16.6 61.8 24 -4 24.9
16:25 1028 30.36 857 25.31 16.8 62.2 24 -3.7 25.3
16:30 1028 30.36 857 25.31 16.6 61.9 24 -3.9 24.9
16:35 1028 30.36 857 25.31 16.7 62.1 24 -3.8 25.2
16:40 1028 30.36 857 25.31 16.7 62 25 -3.6 25.6
16:45 1028 30.36 857 25.31 16.5 61.6 25 -3.6 25.6
16:50 1028 30.36 857 25.31 16.4 61.5 24 -3.9 25
16:55 1028 30.36 857 25.31 16.6 61.9 24 -3.8 25.2
17:00 1028 30.36 857 25.31 16.6 61.9 24 -3.9 25
17:05 1028 30.36 857 25.31 16.7 62 24 -4.1 24.7
17:10 1028 30.36 857 25.31 16.6 61.8 25 -3.6 25.5
17:15 1028 30.36 857 25.31 16.4 61.6 25 -3.4 25.8
17:20 1028 30.36 857 25.31 16.3 61.3 26 -3.2 26.2
17:25 1028 30.36 857 25.31 15.9 60.7 27 -2.9 26.8
17:30 1028 30.36 857 25.31 15.7 60.3 28 -2.9 26.8
17:35 1028 30.36 857 25.31 15.3 59.5 28 -3.2 26.2
17:40 1028 30.36 857 25.31 14.6 58.2 30 -2.9 26.8
17:45 1028 30.36 857 25.31 14.3 57.7 31 -2.8 27
17:50 1028 30.36 857 25.31 14 57.1 31 -2.8 26.9
17:55 1027 30.33 857 25.31 13.5 56.3 32 -2.7 27.1
18:00 1028 30.36 857 25.31 13.2 55.7 34 -2.5 27.6
18:05 1028 30.36 857 25.31 13.1 55.5 38 -1 30.3
18:10 1028 30.36 857 25.31 13 55.3 40 -0.4 31.3
18:15 1027 30.33 857 25.31 12.6 54.6 41 -0.4 31.3
18:20 1027 30.33 857 25.31 12.2 53.9 44 0.3 32.6
18:25 1027 30.33 857 25.31 11.6 52.9 45 0.2 32.4
18:30 1027 30.33 857 25.31 11.3 52.4 46 0.3 32.5
18:35 1027 30.33 857 25.31 11 51.7 47 -0 32
18:40 1027 30.33 856 25.28 10.7 51.3 46 -0.5 31.1
18:45 1027 30.33 856 25.28 10.7 51.3 46 -0.5 31.1
18:50 1027 30.33 856 25.28 10.6 51.1 45 -0.7 30.7
18:55 1027 30.33 857 25.31 10.5 50.9 45 -0.8 30.6
19:00 1027 30.33 857 25.31 10.5 50.8 45 -1.1 30.1
19:05 1027 30.33 856 25.28 10.5 51 44 -1.2 29.9
19:10 1027 30.33 856 25.28 10.5 50.9 44 -1.3 29.6
19:15 1027 30.33 856 25.28 10.4 50.7 44 -1.3 29.6
19:20 1027 30.33 856 25.28 10.3 50.5 44 -1.5 29.4
19:25 1027 30.33 856 25.28 10.2 50.3 45 -1.3 29.7
19:30 1027 30.33 856 25.28 10.2 50.3 43 -1.9 28.6
19:35 1027 30.33 857 25.31 10.7 51.3 43 -1.3 29.6
19:40 1027 30.33 857 25.31 11.1 52 41 -1.6 29.2
19:45 1027 30.33 857 25.31 11.2 52.2 41 -1.6 29.2
19:50 1027 30.33 857 25.31 11.2 52.2 40 -1.7 29
19:55 1027 30.33 857 25.31 11 51.7 41 -1.8 28.7
20:00 1027 30.33 857 25.31 10.7 51.3 40 -2.2 28.1
20:05 1027 30.33 857 25.31 10.7 51.2 41 -2.1 28.2
20:10 1027 30.33 857 25.31 10.7 51.3 40 -2.4 27.8
20:15 1027 30.33 857 25.31 10.6 51 40 -2.3 27.9
20:20 1027 30.33 857 25.31 10.4 50.7 41 -2.1 28.2
20:25 1027 30.33 857 25.31 10.2 50.3 42 -2.1 28.2
20:30 1027 30.33 857 25.31 9.8 49.7 43 -2.2 28.1
20:35 1027 30.33 857 25.31 9.7 49.5 44 -2 28.4
20:40 1027 30.33 856 25.28 9.5 49.1 44 -2.2 28.1
20:45 1027 30.33 856 25.28 9.6 49.2 44 -2.1 28.1
20:50 1027 30.33 856 25.28 8.9 48 46 -2 28.4
20:55 1027 30.33 856 25.28 8.9 48 44 -2.6 27.4
21:00 1027 30.33 856 25.28 9.4 48.8 43 -2.6 27.4
21:05 1027 30.33 856 25.28 9.4 49 44 -2.3 27.9
21:10 1027 30.33 856 25.28 9.6 49.3 42 -2.7 27.2
21:15 1027 30.33 857 25.31 10 50 42 -2.3 27.9
21:20 1027 30.33 857 25.31 9.5 49 44 -2.1 28.2
21:25 1027 30.33 857 25.31 9.2 48.5 46 -1.9 28.5
21:30 1027 30.33 856 25.28 9 48.2 46 -1.9 28.6
21:35 1027 30.33 856 25.28 8.6 47.5 47 -2 28.4
21:40 1027 30.33 856 25.28 8.6 47.5 46 -2.2 28
21:45 1027 30.33 856 25.28 8.5 47.2 48 -1.9 28.6
21:50 1027 30.33 857 25.31 8.1 46.5 46 -2.7 27.2
21:55 1027 30.33 857 25.31 9.2 48.5 44 -2.4 27.7
22:00 1027 30.33 857 25.31 9.1 48.4 44 -2.3 27.8
22:05 1027 30.33 856 25.28 9.3 48.7 45 -2 28.4
22:10 1027 30.33 856 25.28 8.7 47.7 47 -1.9 28.6
22:15 1027 30.33 856 25.28 8.5 47.2 47 -2.2 28.1
22:20 1027 30.33 856 25.28 8.3 47 47 -2.3 27.8
22:25 1027 30.33 856 25.28 8.6 47.6 45 -2.6 27.4
22:30 1027 30.33 856 25.28 8.9 48 45 -2.4 27.7
22:35 1027 30.33 856 25.28 9 48.2 44 -2.5 27.5
22:40 1027 30.33 856 25.28 9 48.2 46 -2 28.3
22:45 1027 30.33 856 25.28 8.6 47.4 47 -2.2 28.1
22:50 1027 30.33 856 25.28 8.4 47 48 -2.1 28.2
22:55 1027 30.33 856 25.28 8.2 46.8 47 -2.3 27.9
23:00 1027 30.33 856 25.28 7.9 46.2 48 -2.4 27.7
23:05 1027 30.33 856 25.28 7.6 45.8 49 -2.3 27.8
23:10 1027 30.33 856 25.28 7.8 46.1 46 -3 26.7
23:15 1027 30.33 856 25.28 8.5 47.3 46 -2.4 27.7
23:20 1027 30.33 856 25.28 8.3 46.9 46 -2.7 27.2
23:25 1027 30.33 856 25.28 8.6 47.5 46 -2.5 27.5
23:30 1027 30.33 856 25.28 8.6 47.5 44 -2.8 27
23:35 1027 30.33 856 25.28 8.9 48.1 44 -2.5 27.5
23:40 1027 30.33 856 25.28 8.7 47.7 45 -2.5 27.6
23:45 1027 30.33 856 25.28 8.7 47.7 42 -3.3 26.1
23:50 1027 30.33 856 25.28 9.3 48.7 43 -2.5 27.4
23:55 1027 30.33 856 25.28 8.7 47.7 45 -2.4 27.6
24:00 1027 30.33 856 25.28 8.1 46.6 47 -2.7 27.2